Tracking 31027 objects as of 19-Jul-2025
HD Live streaming from Space Station
objects crossing your sky now

STARLINK-1147

Track STARLINK-1147 now!
10-day predictions
STARLINK-1147 is classified as:


NORAD ID: 45095
Int'l Code: 2020-006BD
Perigee: 370.3 km
Apogee: 376.2 km
Inclination: 53.1 °
Period: 91.9 minutes
Semi major axis: 6744 km
RCS: Unknown
Launch date: January 29, 2020
Source: United States (US)
Launch site: AIR FORCE EASTERN TEST RANGE (AFETR)
Your satellite tracking list
SL-8 R/B
Track 1 satellite(s)




NASA's NSSDC Master Catalog

Two Line Element Set (TLE):
1 45095U 20006BD  25199.91668981  .00210351  00000-0  18591-2 0  9993
2 45095  53.0507 200.1155 0004315  23.8775  58.3320 15.67480839302359
Source of the keplerian elements: AFSPC